Location: *
(46.1200°N, 11.2700°E)
Time: 01:52:53
(UTC+00:00)

FALCON 9 DEB - Pass Details

Date: 02 March 2021
Orbit: 423 x 435 km, 53.0° (Epoch: 20 April)

Event Time Altitude Azimuth Distance (km) Brightness Sun altitude
Rises 17:23:49 0° 297° (WNW) 2,409 8.0 -4.4°
Reaches altitude 10° 17:26:07 10° 309° (NW) 1,538 6.7 -4.8°
Maximum altitude 17:29:11 29° 12° (NNE) 818 4.4 -5.4°
Drops below altitude 10° 17:32:15 10° 75° (ENE) 1,527 5.2 -5.9°
Enters shadow 17:32:45 - 79° (ENE) 1,713 5.5 -6.0°
